Вернуться в каталог

STARLINK-11276

АктивенСвязьVLEO
NORAD 61244·PAYLOAD·🇺🇸 United States

Запущен Sep 25, 2024 с Vandenberg Space Force Base

Loading…

Ближайшие Пролёты (ближайшие 24 часа)

TLE

СвежийSource: CelesTrak SupGP

Эпоха: Sep 14, 2026, 21:15 UTC

1 61244C 24175B   26257.88590278  .00052905  00000+0  43628-3 0  2578
2 61244  53.1577 203.5630 0001193  77.8110 236.1710 15.69656138    15

Отслеживайте STARLINK-11276 в реальном времени с AllMySat

Download on the App Store